Location: ???????
(55.4231°N, 38.5570°E)
Time: 14:12:47
(UTC+00:00)

Cosmos 1655 Rocket - Pass Details

Date: 05 August 2024
Orbit: 971 x 1005 km, 83.0° (Epoch: 18 September)

Event Time Altitude Azimuth Distance (km) Brightness Sun altitude
Rises 00:30:12 0° 347° (NNW) 3,681 7.5 -8.5°
Reaches altitude 10° 00:32:45 10° 343° (NNW) 2,730 6.8 -8.2°
Maximum altitude 00:38:50 58° 267° (W) 1,133 4.2 -7.6°
Drops below altitude 10° 00:44:56 10° 190° (S) 2,727 5.9 -7.0°
Sets 00:47:28 0° 187° (S) 3,676 6.6 -6.8°
